[Date Prev][Date Next][Thread Prev][Thread Next] - [Date Index][Thread Index][Author Index]

2 Line ISS Keps 6-25



ISS
1 25544U 98067A   06175.98671852  .00004977  00000-0  35653-4 0  1710
2 25544 051.6282 147.3072 0010203 003.7827 117.5695 15.75834776434393
----
Via the sarex mailing list at AMSAT.ORG courtesy of AMSAT-NA.
To unsubscribe, send "unsubscribe sarex" to Majordomo@amsat.org



AMSAT Top AMSAT Home